H1 CPF 2 NER 2021 9 23 9 266 01 glonass134 H2 1407501 9134 40315 2021 9 23 0 0 0 2021 9 26 23 45 0 900 1 1 0 0 0 1 H9 10 0 59480 0.00000 0 -11649362.441 -22035102.404 -5580886.311 10 0 59480 900.00000 0 -11939107.851 -22451204.177 -2447540.117 10 0 59480 1800.00000 0 -12079604.677 -22500811.130 733149.261 10 0 59480 2700.00000 0 -12022102.496 -22206146.857 3899665.766 10 0 59480 3600.00000 0 -11724466.839 -21600557.001 6990803.451 10 0 59480 4500.00000 0 -11153171.970 -20727000.446 9946833.958 10 0 59480 5400.00000 0 -10284942.889 -19636161.248 12710643.962 10 0 59480 6300.00000 0 -9107977.981 -18384259.913 15228822.084 10 0 59480 7200.00000 0 -7622701.062 -17030654.824 17452675.682 10 0 59480 8100.00000 0 -5842010.677 -15635332.880 19339159.418 10 0 59480 9000.00000 0 -3791014.872 -14256392.761 20851698.969 10 0 59480 9900.00000 0 -1506260.566 -12947624.498 21960894.964 10 0 59480 10800.00000 0 965512.954 -11756285.111 22645094.270 10 0 59480 11700.00000 0 3569047.509 -10721162.188 22890817.713 10 0 59480 12600.00000 0 6242599.969 -9871005.878 22693035.633 10 0 59480 13500.00000 0 8920255.277 -9223394.816 22055285.010 10 0 59480 14400.00000 0 11534425.192 -8784084.098 20989624.484 10 0 59480 15300.00000 0 14018431.135 -8546863.737 19516426.251 10 0 59480 16200.00000 0 16309065.222 -8493935.044 17664006.775 10 0 59480 17100.00000 0 18349023.665 -8596790.772 15468101.168 10 0 59480 18000.00000 0 20089110.895 -8817563.624 12971189.366 10 0 59480 18900.00000 0 21490121.641 -9110787.565 10221685.354 10 0 59480 19800.00000 0 22524320.872 -9425498.348 7273003.803 10 0 59480 20700.00000 0 23176457.912 -9707584.561 4182521.678 10 0 59480 21600.00000 0 23444270.499 -9902288.957 1010454.970 10 0 59480 22500.00000 0 23338456.166 -9956752.698 -2181326.859 10 0 59480 23400.00000 0 22882111.185 -9822492.552 -5330524.228 10 0 59480 24300.00000 0 22109660.426 -9457703.508 -8375642.898 10 0 59480 25200.00000 0 21065323.677 -8829286.423 -11257215.352 10 0 59480 26100.00000 0 19801184.222 -7914512.126 -13918981.955 10 0 59480 27000.00000 0 18374942.818 -6702249.141 -16309006.794 10 0 59480 27900.00000 0 16847453.796 -5193701.162 -18380704.690 10 0 59480 28800.00000 0 15280149.227 -3402621.903 -20093757.991 10 0 59480 29700.00000 0 13732461.563 -1354997.564 -21414904.599 10 0 59480 30600.00000 0 12259354.626 911789.813 -22318581.805 10 0 59480 31500.00000 0 10909067.628 3350282.540 -22787413.791 10 0 59480 32400.00000 0 9721167.000 5904694.985 -22812534.352 10 0 59480 33300.00000 0 8724987.033 8513014.907 -22393739.892 10 0 59480 34200.00000 0 7938523.262 11109369.813 -21539471.324 10 0 59480 35100.00000 0 7367822.831 13626559.202 -20266626.950 10 0 59480 36000.00000 0 7006894.769 15998647.075 -18600211.619 10 0 59480 36900.00000 0 6838141.148 18163507.114 -16572830.556 10 0 59480 37800.00000 0 6833288.185 20065215.504 -14224039.038 10 0 59480 38700.00000 0 6954775.591 21656193.249 -11599561.553 10 0 59480 39600.00000 0 7157543.674 22899010.567 -8750396.424 10 0 59480 40500.00000 0 7391141.422 23767780.415 -5731823.664 10 0 59480 41400.00000 0 7602065.900 24249085.361 -2602335.357 10 0 59480 42300.00000 0 7736234.180 24342401.412 577490.820 10 0 59480 43200.00000 0 7741483.897 24060003.239 3746153.749 10 0 59480 44100.00000 0 7569997.780 23426356.404 6842404.998 10 0 59480 45000.00000 0 7180550.978 22477023.194 9806417.204 10 0 59480 45900.00000 0 6540487.486 21257128.340 12580923.464 10 0 59480 46800.00000 0 5627343.304 19819448.623 15112307.152 10 0 59480 47700.00000 0 4430048.424 18222205.536 17351622.558 10 0 59480 48600.00000 0 2949657.001 16526651.993 19255528.153 10 0 59480 49500.00000 0 1199574.118 14794552.232 20787115.774 10 0 59480 50400.00000 0 -794731.944 13085658.465 21916620.727 10 0 59480 51300.00000 0 -2996522.227 11455287.789 22621999.811 10 0 59480 52200.00000 0 -5359054.236 9952099.035 22889366.275 10 0 59480 53100.00000 0 -7827273.986 8616161.277 22713272.969 10 0 59480 54000.00000 0 -10339865.798 7477394.091 22096837.329 10 0 59480 54900.00000 0 -12831577.606 6554444.752 21051704.371 10 0 59480 55800.00000 0 -15235727.535 5854049.967 19597846.572 10 0 59480 56700.00000 0 -17486789.402 5370909.886 17763202.388 10 0 59480 57600.00000 0 -19522950.528 5088080.998 15583158.161 10 0 59480 58500.00000 0 -21288535.385 4977872.844 13099881.349 10 0 59480 59400.00000 0 -22736193.304 5003211.996 10361516.175 10 0 59480 60300.00000 0 -23828757.484 5119416.636 7421255.924 10 0 59480 61200.00000 0 -24540695.604 5276307.054 4336309.258 10 0 59480 62100.00000 0 -24859089.267 5420562.316 1166780.602 10 0 59480 63000.00000 0 -24784099.265 5498222.141 -2025512.933 10 0 59480 63900.00000 0 -24328895.558 5457226.095 -5178263.662 10 0 59480 64800.00000 0 -23519054.042 5249880.044 -8229908.839 10 0 59480 65700.00000 0 -22391445.307 4835142.587 -11120853.373 10 0 59480 66600.00000 0 -20992662.733 4180631.805 -13794653.570 10 0 59480 67500.00000 0 -19377057.412 3264264.717 -16199136.755 10 0 59480 68400.00000 0 -17604464.303 2075457.928 -18287433.124 10 0 59480 69300.00000 0 -15737717.304 615837.093 -20018898.389 10 0 59480 70200.00000 0 -13840059.678 -1100575.702 -21359908.470 10 0 59480 71100.00000 0 -11972560.190 -3047704.962 -22284510.692 10 0 59480 72000.00000 0 -10191644.557 -5188280.516 -22774919.170 10 0 59480 72900.00000 0 -8546846.073 -7475175.417 -22821845.753 10 0 59480 73800.00000 0 -7078869.180 -9853166.140 -22424661.424 10 0 59480 74700.00000 0 -5818045.908 -12261040.521 -21591386.579 10 0 59480 75600.00000 0 -4783247.768 -14633964.742 -20338512.123 10 0 59480 76500.00000 0 -3981296.080 -16906010.147 -18690656.503 10 0 59480 77400.00000 0 -3406892.513 -19012734.461 -16680066.933 10 0 59480 78300.00000 0 -3043069.633 -20893710.337 -14345975.840 10 0 59480 79200.00000 0 -2862139.568 -22494896.826 -11733826.074 10 0 59480 80100.00000 0 -2827098.313 -23770756.261 -8894380.729 10 0 59480 81000.00000 0 -2893424.502 -24686030.130 -5882735.278 10 0 59480 81900.00000 0 -3011195.444 -25217101.834 -2757251.249 10 0 59480 82800.00000 0 -3127430.525 -25352891.485 421568.024 10 0 59480 83700.00000 0 -3188563.048 -25095247.361 3592238.345 10 0 59480 84600.00000 0 -3142936.718 -24458819.300 6693470.683 10 0 59480 85500.00000 0 -2943222.348 -23470420.496 9665340.474 10 0 59481 0.00000 0 -2548653.969 -22167905.087 12450428.900 10 0 59481 900.00000 0 -1926990.688 -20598608.181 14994915.837 10 0 59481 1800.00000 0 -1056123.663 -18817413.345 17249604.000 10 0 59481 2700.00000 0 74741.230 -16884526.453 19170857.068 10 0 59481 3600.00000 0 1464373.017 -14863047.514 20721434.271 10 0 59481 4500.00000 0 3099309.850 -12816439.737 21871206.618 10 0 59481 5400.00000 0 4954167.748 -10805999.344 22597741.626 10 0 59481 6300.00000 0 6992453.683 -8888429.707 22886745.498 10 0 59481 7200.00000 0 9167851.958 -7113619.416 22732353.866 10 0 59481 8100.00000 0 11425933.480 -5522715.847 22137264.630 10 0 59481 9000.00000 0 13706219.890 -4146574.060 21112708.929 10 0 59481 9900.00000 0 15944519.317 -3004645.942 19678258.994 10 0 59481 10800.00000 0 18075438.719 -2104356.609 17861474.483 10 0 59481 11700.00000 0 20034969.549 -1440995.174 15697391.888 10 0 59481 12600.00000 0 21763039.379 -998125.683 13227864.795 10 0 59481 13500.00000 0 23205922.596 -748502.072 10500765.941 10 0 59481 14400.00000 0 24318408.187 -655449.517 7569065.142 10 0 59481 15300.00000 0 25065632.016 -674654.326 4489800.324 10 0 59481 16200.00000 0 25424494.613 -756286.519 1322961.607 10 0 59481 17100.00000 0 25384602.725 -847364.361 -1869689.248 10 0 59481 18000.00000 0 24948693.029 -894259.115 -5025839.609 10 0 59481 18900.00000 0 24132518.704 -845231.644 -8083861.420 10 0 59481 19800.00000 0 22964202.759 -652890.747 -10984035.143 10 0 59481 20700.00000 0 21483085.280 -276466.264 -13669735.970 10 0 59481 21600.00000 0 19738113.763 316202.026 -16088557.133 10 0 59481 22500.00000 0 17785845.470 1147046.311 -18193346.588 10 0 59481 23400.00000 0 15688147.507 2226593.683 -19943135.441 10 0 59481 24300.00000 0 13509693.008 3553281.129 -21303939.334 10 0 59481 25200.00000 0 11315360.133 5113292.049 -22249416.967 10 0 59481 26100.00000 0 9167644.243 6880921.187 -22761373.369 10 0 59481 27000.00000 0 7124192.248 8819452.149 -22830099.035 10 0 59481 27900.00000 0 5235562.190 10882509.957 -22454539.703 10 0 59481 28800.00000 0 3543300.892 13015830.881 -21642294.998 10 0 59481 29700.00000 0 2078418.303 15159374.668 -20409447.727 10 0 59481 30600.00000 0 860319.907 17249690.120 -18780228.786 10 0 59481 31500.00000 0 -103761.000 19222434.789 -16786525.797 10 0 59481 32400.00000 0 -818810.633 21014943.670 -14467246.354 10 0 59481 33300.00000 0 -1301562.933 22568740.196 -11867549.318 10 0 59481 34200.00000 0 -1579531.421 23831885.651 -9037959.881 10 0 59481 35100.00000 0 -1689588.047 24761070.313 -6033386.049 10 0 59481 36000.00000 0 -1676150.786 25323360.648 -2912055.666 10 0 59481 36900.00000 0 -1589057.606 25497531.346 265605.504 10 0 59481 37800.00000 0 -1481217.010 25274928.300 3438133.452 10 0 59481 38700.00000 0 -1406134.174 24659828.026 6544201.744 10 0 59481 39600.00000 0 -1415416.383 23669279.659 9523791.681 10 0 59481 40500.00000 0 -1556362.034 22332436.836 12319335.505 10 0 59481 41400.00000 0 -1869733.760 20689407.409 14876811.998 10 0 59481 42300.00000 0 -2387808.498 18789668.489 17146774.738 10 0 59481 43200.00000 0 -3132785.939 16690111.791 19085294.672 10 0 59481 44100.00000 0 -4115622.209 14452799.090 20654800.163 10 0 59481 45000.00000 0 -5335338.276 12142519.329 21824799.325 10 0 59481 45900.00000 0 -6778833.462 9824246.901 22572471.456 10 0 59481 46800.00000 0 -8421213.900 7560604.718 22883116.389 10 0 59481 47700.00000 0 -10226624.793 5409435.802 22750452.782 10 0 59481 48600.00000 0 -12149554.731 3421582.957 22176758.764 10 0 59481 49500.00000 0 -14136560.767 1638967.978 21172850.865 10 0 59481 50400.00000 0 -16128345.162 93050.201 19757899.798 10 0 59481 51300.00000 0 -18062099.685 -1196271.151 17959084.615 10 0 59481 52200.00000 0 -19874021.444 -2221264.254 15811089.636 10 0 59481 53100.00000 0 -21501896.032 -2986455.145 13355451.802 10 0 59481 54000.00000 0 -22887640.080 -3508196.518 10639769.214 10 0 59481 54900.00000 0 -23979695.878 -3813732.057 7716784.802 10 0 59481 55800.00000 0 -24735176.042 -3939795.075 4643362.186 10 0 59481 56700.00000 0 -25121666.078 -3930800.623 1479373.533 10 0 59481 57600.00000 0 -25118606.659 -3836708.060 -1713478.337 10 0 59481 58500.00000 0 -24718195.099 -3710645.857 -4872879.327 10 0 59481 59400.00000 0 -23925766.076 -3606401.162 -7937139.387 10 0 59481 60300.00000 0 -22759634.046 -3575882.937 -10846417.613 10 0 59481 61200.00000 0 -21250403.270 -3666668.826 -13543910.896 10 0 59481 62100.00000 0 -19439774.469 -3919742.407 -15976980.850 10 0 59481 63000.00000 0 -17378898.983 -4367519.119 -18098195.232 10 0 59481 63900.00000 0 -15126350.866 -5032246.400 -19866262.110 10 0 59481 64800.00000 0 -12745803.563 -5924847.105 -21246837.827 10 0 59481 65700.00000 0 -10303510.166 -7044255.838 -22213192.839 10 0 59481 66600.00000 0 -7865694.165 -8377276.309 -22746722.828 10 0 59481 67500.00000 0 -5495960.729 -9898965.325 -22837296.087 10 0 59481 68400.00000 0 -3252836.905 -11573526.474 -22483431.704 10 0 59481 69300.00000 0 -1187542.996 -13355674.906 -21692306.670 10 0 59481 70200.00000 0 657913.183 -15192414.860 -20479593.455 10 0 59481 71100.00000 0 2252241.735 -17025154.517 -18869132.890 10 0 59481 72000.00000 0 3575915.528 -18792068.870 -16892450.298 10 0 59481 72900.00000 0 4621713.965 -20430611.433 -14588125.626 10 0 59481 73800.00000 0 5394746.250 -21880069.842 -12001030.882 10 0 59481 74700.00000 0 5911956.387 -23084059.003 -9181450.532 10 0 59481 75600.00000 0 6201133.697 -23992848.514 -6184102.359 10 0 59481 76500.00000 0 6299472.894 -24565428.329 -3067077.892 10 0 59481 77400.00000 0 6251746.069 -24771227.749 109277.149 10 0 59481 78300.00000 0 6108164.687 -24591417.399 3283521.253 10 0 59481 79200.00000 0 5922022.075 -24019741.165 6394292.706 10 0 59481 80100.00000 0 5747215.459 -23062844.411 9381480.602 10 0 59481 81000.00000 0 5635751.311 -21740085.488 12187369.925 10 0 59481 81900.00000 0 5635338.051 -20082838.484 14757740.005 10 0 59481 82800.00000 0 5787166.389 -18133315.896 17042896.555 10 0 59481 83700.00000 0 6123969.775 -15942959.215 18998618.873 10 0 59481 84600.00000 0 6668445.968 -13570462.811 20587005.308 10 0 59481 85500.00000 0 7432106.028 -11079511.375 21777201.679 10 0 59482 0.00000 0 8414599.672 -8536322.693 22545999.394 10 0 59482 900.00000 0 9603547.120 -6007095.466 22878292.010 10 0 59482 1800.00000 0 10974885.417 -3555466.077 22767381.056 10 0 59482 2700.00000 0 12493719.148 -1240078.439 22215124.499 10 0 59482 3600.00000 0 14115641.146 887634.124 21231923.659 10 0 59482 4500.00000 0 15788471.979 2785362.640 19836546.945 10 0 59482 5400.00000 0 17454347.706 4421452.783 18055791.819 10 0 59482 6300.00000 0 19052070.869 5775987.337 15923989.251 10 0 59482 7200.00000 0 20519627.602 6841374.739 13482358.140 10 0 59482 8100.00000 0 21796765.929 7622418.071 10778220.330 10 0 59482 9000.00000 0 22827526.663 8135860.611 7864089.980 10 0 59482 9900.00000 0 23562619.310 8409426.229 4796654.266 10 0 59482 10800.00000 0 23961541.132 8480394.795 1635665.031 10 0 59482 11700.00000 0 23994347.779 8393773.037 -1557236.427 10 0 59482 12600.00000 0 23642998.314 8200139.072 -4719737.256 10 0 59482 13500.00000 0 22902215.595 7953253.505 -7790088.174 10 0 59482 14400.00000 0 21779823.682 7707540.380 -10708329.624 10 0 59482 15300.00000 0 20296546.718 7515547.228 -13417482.779 10 0 59482 16200.00000 0 18485277.060 7425494.407 -15864680.022 10 0 59482 17100.00000 0 16389843.493 7479020.064 -18002211.073 10 0 59482 18000.00000 0 14063332.046 7709218.230 -19788462.872 10 0 59482 18900.00000 0 11566031.025 8139054.641 -21188734.130 10 0 59482 19800.00000 0 8963087.737 8780228.146 -22175908.488 10 0 59482 20700.00000 0 6321976.425 9632525.975 -22730973.450 10 0 59482 21600.00000 0 3709884.236 10683699.723 -22843375.976 10 0 59482 22500.00000 0 1191124.902 11909866.403 -22511209.051 10 0 59482 23400.00000 0 -1175312.032 13276416.498 -21741227.183 10 0 59482 24300.00000 0 -3337975.177 14739389.518 -20548692.229 10 0 59482 25200.00000 0 -5254837.845 16247258.065 -18957054.223 10 0 59482 26100.00000 0 -6894780.744 17743044.415 -16997474.999 10 0 59482 27000.00000 0 -8238611.874 19166680.166 -14708205.236 10 0 59482 27900.00000 0 -9279584.254 20457509.734 -12133828.092 10 0 59482 28800.00000 0 -10023393.068 21556832.888 -9324384.970 10 0 59482 29700.00000 0 -10487655.562 22410380.403 -6334400.832 10 0 59482 30600.00000 0 -10700898.332 22970620.064 -3221828.100 10 0 59482 31500.00000 0 -10701096.714 23198797.604 -46929.513 10 0 59482 32400.00000 0 -10533829.328 23066628.463 3128878.905 10 0 59482 33300.00000 0 -10250126.254 22557570.781 6244203.169 10 0 59482 34200.00000 0 -9904101.570 21667627.446 9238843.139 10 0 59482 35100.00000 0 -9550469.500 20405644.324 12054939.428 10 0 59482 36000.00000 0 -9242047.851 18793092.404 14638074.666 10 0 59482 36900.00000 0 -9027352.660 16863342.547 16938309.293 10 0 59482 37800.00000 0 -8948384.081 14660462.100 18911133.346 10 0 59482 38700.00000 0 -9038695.642 12237581.818 20518317.304 10 0 59482 39600.00000 0 -9321827.442 9654899.073 21728646.562 10 0 59482 40500.00000 0 -9810169.120 6977397.883 22518526.204 10 0 59482 41400.00000 0 -10504301.058 4272377.893 22872444.676 10 0 59482 42300.00000 0 -11392842.830 1606892.510 22783287.133 10 0 59482 43200.00000 0 -12452817.351 -954799.699 22252491.704 10 0 59482 44100.00000 0 -13650517.952 -3353666.252 21290044.281 10 0 59482 45000.00000 0 -14942844.800 -5538114.706 19914310.208 10 0 59482 45900.00000 0 -16279057.314 -7465897.737 18151704.042 10 0 59482 46800.00000 0 -17602871.482 -9105629.909 16036201.547 10 0 59482 47700.00000 0 -18854815.760 -10437852.122 13608701.225 10 0 59482 48600.00000 0 -19974747.609 -11455598.308 10916245.865 10 0 59482 49500.00000 0 -20904424.909 -12164439.544 8011117.722 10 0 59482 50400.00000 0 -21590023.171 -12582002.708 4949824.122 10 0 59482 51300.00000 0 -21984490.870 -12736983.359 1791993.025 10 0 59482 52200.00000 0 -22049641.345 -12667694.341 -1400799.433 10 0 59482 53100.00000 0 -21757890.404 -12420211.950 -4566245.284 10 0 59482 54000.00000 0 -21093563.683 -12046199.273 -7642539.577 10 0 59482 54900.00000 0 -20053716.167 -11600500.639 -10569607.541 10 0 59482 55800.00000 0 -18648427.391 -11138611.262 -13290297.865 10 0 59482 56700.00000 0 -16900558.611 -10714131.751 -15751516.664 10 0 59482 57600.00000 0 -14844981.571 -10376317.698 -17905278.208 10 0 59482 58500.00000 0 -12527311.479 -10167830.232 -19709650.430 10 0 59482 59400.00000 0 -10002198.067 -10122784.365 -21129575.982 10 0 59482 60300.00000 0 -7331247.424 -10265178.682 -22137552.620 10 0 59482 61200.00000 0 -4580662.827 -10607773.001 -22714159.954 10 0 59482 62100.00000 0 -1818704.264 -11151461.046 -22848423.246 10 0 59482 63000.00000 0 886926.660 -11885163.654 -22538008.404 10 0 59482 63900.00000 0 3471667.081 -12786245.673 -21789245.954 10 0 59482 64800.00000 0 5876531.514 -13821437.424 -20616985.204 10 0 59482 65700.00000 0 8050308.395 -14948220.365 -19044283.107 10 0 59482 66600.00000 0 9951424.821 -16116617.226 -17101935.443 10 0 59482 67500.00000 0 11549404.314 -17271310.232 -14827860.847 10 0 59482 68400.00000 0 12825859.737 -18353997.686 -12266350.683 10 0 59482 69300.00000 0 13774983.001 -19305889.637 -9467200.233 10 0 59482 70200.00000 0 14403514.341 -20070238.044 -6484738.513 10 0 59482 71100.00000 0 14730195.384 -20594795.824 -3376775.702 10 0 59482 72000.00000 0 14784731.494 -20834102.508 -203488.476 10 0 59482 72900.00000 0 14606308.885 -20751501.747 2973735.589 10 0 59482 73800.00000 0 14241730.113 -20320807.214 6093473.018 10 0 59482 74700.00000 0 13743246.819 -19527548.137 9095436.951 10 0 59482 75600.00000 0 13166180.795 -18369742.987 11921625.840 10 0 59482 76500.00000 0 12566432.679 -16858169.239 14517427.497 10 0 59482 77400.00000 0 11997981.977 -15016117.615 16832658.592 10 0 59482 78300.00000 0 11510482.177 -12878640.174 18822521.051 10 0 59482 79200.00000 0 11147050.769 -10491321.983 20448458.259 10 0 59482 80100.00000 0 10942345.956 -7908625.488 21678895.621 10 0 59482 81000.00000 0 10921010.239 -5191873.920 22489851.986 10 0 59482 81900.00000 0 11096546.232 -2406954.715 22865410.480 10 0 59482 82800.00000 0 11470672.575 378164.321 22798039.400 10 0 59482 83700.00000 0 12033188.333 3096005.622 22288756.273 10 0 59482 84600.00000 0 12762353.529 5682134.672 21347130.601 10 0 59482 85500.00000 0 13625772.163 8077590.461 19991123.495 10 0 59483 0.00000 0 14581743.115 10231093.502 18246765.323 10 0 59483 900.00000 0 15581024.625 12100939.576 16147675.043 10 0 59483 1800.00000 0 16568939.888 13656500.283 13734429.149 10 0 59483 2700.00000 0 17487736.690 14879265.711 11053789.531 10 0 59483 3600.00000 0 18279102.060 15763385.933 8157804.532 10 0 59483 4500.00000 0 18886725.473 16315686.194 5102799.447 10 0 59483 5400.00000 0 19258801.212 16555154.808 1948276.022 10 0 59483 6300.00000 0 19350362.233 16511924.687 -1244257.211 10 0 59483 7200.00000 0 19125344.393 16225791.531 -4412499.676 10 0 59483 8100.00000 0 18558291.145 15744332.090 -7494593.238 10 0 59483 9000.00000 0 17635623.961 15120703.427 -10430350.328 10 0 59483 9900.00000 0 16356422.536 14411218.258 -13162449.410 10 0 59483 10800.00000 0 14732680.032 13672801.233 -15637572.407 10 0 59483 11700.00000 0 12789021.448 12960436.162 -17807460.009 10 0 59483 12600.00000 0 10561896.571 12324714.353 -19629862.809 10 0 59483 13500.00000 0 8098281.582 11809589.527 -21069368.874 10 0 59483 14400.00000 0 5453944.445 11450435.308 -22098091.366 10 0 59483 15300.00000 0 2691347.755 11272487.812 -22696203.094 10 0 59483 16200.00000 0 -122722.285 11289738.754 -22852308.479 10 0 59483 17100.00000 0 -2919700.970 11504324.834 -22563646.935 10 0 59483 18000.00000 0 -5631857.597 11906437.628 -21836125.240 10 0 59483 18900.00000 0 -8194866.682 12474755.983 -20684179.985 10 0 59483 19800.00000 0 -10550231.577 13177380.743 -19130474.429 10 0 59483 20700.00000 0 -12647460.888 13973230.545 -17205437.261 10 0 59483 21600.00000 0 -14445909.163 14813838.327 -14946653.620 10 0 59483 22500.00000 0 -15916207.657 15645471.706 -12398121.277 10 0 59483 23400.00000 0 -17041228.332 16411487.234 -9609387.306 10 0 59483 24300.00000 0 -17816543.926 17054819.244 -6634582.481 10 0 59483 25200.00000 0 -18250367.775 17520498.842 -3531372.276 10 0 59483 26100.00000 0 -18362978.579 17758097.745 -359844.746 10 0 59483 27000.00000 0 -18185656.418 17723995.168 2818643.628 10 0 59483 27900.00000 0 -17759176.243 17383373.569 5942642.561 10 0 59483 28800.00000 0 -17131922.972 16711860.468 8951781.206 10 0 59483 29700.00000 0 -16357707.526 15696748.267 11787918.588 10 0 59483 30600.00000 0 -15493375.109 14337741.306 14396250.403 10 0 59483 31500.00000 0 -14596305.200 12647198.786 16726352.188 10 0 59483 32400.00000 0 -13721906.924 10649862.643 18733140.264 10 0 59483 33300.00000 0 -12921213.446 8382080.258 20377733.251 10 0 59483 34200.00000 0 -12238675.014 5890552.464 21628198.637 10 0 59483 35100.00000 0 -11710242.084 3230656.406 22460170.819 10 0 59483 36000.00000 0 -11361818.374 464410.108 22857329.032 10 0 59483 36900.00000 0 -11208148.682 -2341839.578 22811725.736 10 0 59483 37800.00000 0 -11252188.804 -5119912.528 22323958.446 10 0 59483 38700.00000 0 -11484985.240 -7802373.311 21403180.378 10 0 59483 39600.00000 0 -11886071.542 -10325086.374 20066948.033 10 0 59483 40500.00000 0 -12424366.730 -12629643.563 18340906.595 10 0 59483 41400.00000 0 -13059540.160 -14665563.537 16258317.025 10 0 59483 42300.00000 0 -13743787.339 -16392171.147 13859431.847 10 0 59483 43200.00000 0 -14423943.354 -17780077.631 11190729.809 10 0 59483 44100.00000 0 -15043845.546 -18812198.499 8304022.710 10 0 59483 45000.00000 0 -15546845.668 -19484265.064 5255450.921 10 0 59483 45900.00000 0 -15878364.473 -19804806.900 2104386.849 10 0 59483 46800.00000 0 -15988379.057 -19794605.021 -1087731.844 10 0 59483 47700.00000 0 -15833735.407 -19485638.409 -4258615.337 10 0 59483 48600.00000 0 -15380185.689 -18919568.618 -7346355.730 10 0 59483 49500.00000 0 -14604061.234 -18145827.400 -10290656.053 10 0 59483 50400.00000 0 -13493507.950 -17219389.704 -13034027.891 10 0 59483 51300.00000 0 -12049229.707 -16198328.230 -15522932.158 10 0 59483 52200.00000 0 -10284706.714 -15141255.097 -17708838.910 10 0 59483 53100.00000 0 -8225878.762 -14104760.952 -19549183.992 10 0 59483 54000.00000 0 -5910306.334 -13140961.540 -21008203.018 10 0 59483 54900.00000 0 -3385845.054 -12295256.645 -22057626.155 10 0 59483 55800.00000 0 -708889.789 -11604396.583 -22677220.422 10 0 59483 56700.00000 0 2057737.301 -11094937.670 -22855169.809 10 0 59483 57600.00000 0 4847165.673 -10782150.829 -22588287.062 10 0 59483 58500.00000 0 7591022.342 -10669427.827 -21882054.512 10 0 59483 59400.00000 0 10222038.554 -10748208.130 -20750494.863 10 0 59483 60300.00000 0 12676608.968 -10998427.169 -19215876.104 10 0 59483 61200.00000 0 14897197.645 -11389464.849 -17308257.878 10 0 59483 62100.00000 0 16834492.213 -11881552.210 -15064889.529 10 0 59483 63000.00000 0 18449218.587 -12427575.187 -12529472.603 10 0 59483 63900.00000 0 19713542.991 -12975198.210 -9751303.034 10 0 59483 64800.00000 0 20612005.596 -13469217.388 -6784310.150 10 0 59483 65700.00000 0 21141949.568 -13854043.955 -3686011.323 10 0 59483 66600.00000 0 21313430.194 -14076213.669 -516402.473 10 0 59483 67500.00000 0 21148610.239 -14086817.168 2663194.531 10 0 59483 68400.00000 0 20680668.617 -13843749.918 5791306.002 10 0 59483 69300.00000 0 19952269.296 -13313688.138 8807480.275 10 0 59483 70200.00000 0 19013655.106 -12473708.510 11653439.792 10 0 59483 71100.00000 0 17920446.200 -11312484.236 14274190.586 10 0 59483 72000.00000 0 16731234.693 -9831007.396 16619069.085 10 0 59483 72900.00000 0 15505075.083 -8042806.827 18642707.573 10 0 59483 73800.00000 0 14298974.080 -5973651.199 20305901.043 10 0 59483 74700.00000 0 13165483.459 -3660747.895 21576359.786 10 0 59483 75600.00000 0 12150495.265 -1151468.632 22429334.061 10 0 59483 76500.00000 0 11291330.615 1498348.022 22848099.161 10 0 59483 77400.00000 0 10615201.546 4226449.628 22824291.315 10 0 59483 78300.00000 0 10138110.321 6966496.191 22358087.304 10 0 59483 79200.00000 0 9864232.927 9650565.950 21458223.041 10 0 59483 80100.00000 0 9785813.826 12211738.833 20141849.122 10 0 59483 81000.00000 0 9883577.957 14586651.848 18434224.065 10 0 59483 81900.00000 0 10127644.472 16717921.025 16368248.980 10 0 59483 82800.00000 0 10478905.552 18556329.025 13983850.525 10 0 59483 83700.00000 0 10890813.667 20062686.539 11327222.152 10 0 59483 84600.00000 0 11311502.846 21209288.542 8449936.815 10 0 59483 85500.00000 0 11686154.594 21980902.829 5407947.500 99